User: anonymous
Location: UBC Liquid-Mirror Observatory
(49.2876°N, 122.5728°W)
Time: 14:00:41
(UTC-07:00)
Language:

Cosmos 1315 - Orbit

View from above orbital plane
View from above orbital plane
View from above satellite
View from above satellite

Ground track
Ground track

The orbit data is extracted from the following two-line orbital elements,

1 12903U 81103A   14243.64674280  .00016879  00000-0  29767-3 0  2537
2 12903 081.1332 057.1003 0004259 023.1944 097.7404 15.50257362801998
Epoch (UTC): 31 August 2014 15:31:18
Eccentricity: 0.0004259
inclination: 81.1332°
perigee height: 413 km
apogee height: 419 km
right ascension of ascending node: 57.1003°
argument of perigee: 23.1944°
revolutions per day: 15.50257362
mean anomaly at epoch: 97.7404°
orbit number at epoch: 80199

The dashed part of the orbit path shows where the satellite is in the earth's shadow,  

DLR